Time,TemperatureF,DewpointF,PressureIn,WindDirection,WindDirectionDegrees,WindSpeedMPH,WindSpeedGustMPH,Humidity,HourlyPrecipIn,Conditions,Clouds,dailyrainin,SoftwareType,DateUTC
2013-04-28 09:15:00,57.7,39.2,29.73,South,177,0.0,0.0,50,0.00,,,0.00,Wunderground v.1.12,2013-04-28 13:15:00,
2013-04-28 09:45:00,59.8,38.4,29.73,South,178,0.0,0.0,45,0.00,,,0.00,Wunderground v.1.12,2013-04-28 13:45:00,
2013-04-28 10:15:00,62.9,39.4,29.73,South,174,0.0,0.0,42,0.00,,,0.00,Wunderground v.1.12,2013-04-28 14:15:00,
2013-04-28 10:45:00,64.9,41.9,29.73,SE,144,3.0,7.0,43,0.00,,,0.00,Wunderground v.1.12,2013-04-28 14:45:00,
2013-04-28 11:15:00,67.5,43.0,29.71,SE,141,0.0,0.0,41,0.00,,,0.00,Wunderground v.1.12,2013-04-28 15:15:00,
2013-04-28 11:45:00,68.8,42.8,29.70,SE,131,2.0,2.0,39,0.00,,,0.00,Wunderground v.1.12,2013-04-28 15:45:00,
2013-04-28 12:15:00,70.5,42.2,29.69,SE,137,0.0,0.0,36,0.00,,,0.00,Wunderground v.1.12,2013-04-28 16:15:00,
2013-04-28 12:45:00,71.1,42.0,29.68,SE,136,7.0,7.0,35,0.00,,,0.00,Wunderground v.1.12,2013-04-28 16:45:00,
2013-04-28 13:15:00,72.4,42.4,29.66,SSE,166,0.0,0.0,34,0.00,,,0.00,Wunderground v.1.12,2013-04-28 17:15:00,
2013-04-28 13:45:00,73.9,43.0,29.65,SSE,151,2.0,2.0,33,0.00,,,0.00,Wunderground v.1.12,2013-04-28 17:45:00,
2013-04-28 14:15:00,74.3,44.1,29.64,SE,136,3.0,3.0,34,0.00,,,0.00,Wunderground v.1.12,2013-04-28 18:15:00,
2013-04-28 14:45:00,74.7,44.5,29.63,SE,130,1.0,1.0,34,0.00,,,0.00,Wunderground v.1.12,2013-04-28 18:45:00,
2013-04-28 15:15:00,73.5,41.8,29.62,ESE,121,0.0,0.0,32,0.00,,,0.00,Wunderground v.1.12,2013-04-28 19:15:00,
2013-04-28 15:45:00,73.5,42.6,29.60,ENE,65,7.0,7.0,33,0.00,,,0.00,Wunderground v.1.12,2013-04-28 19:45:00,
2013-04-28 16:15:00,73.6,42.7,29.59,ENE,74,4.0,4.0,33,0.00,,,0.00,Wunderground v.1.12,2013-04-28 20:15:00,
2013-04-28 16:45:00,72.8,42.8,29.58,NE,40,0.0,0.0,34,0.00,,,0.00,Wunderground v.1.12,2013-04-28 20:45:00,
2013-04-28 17:15:00,71.2,40.6,29.57,ENE,58,6.0,6.0,33,0.00,,,0.00,Wunderground v.1.12,2013-04-28 21:15:00,
2013-04-28 17:45:00,70.5,40.8,29.57,East,94,10.0,10.0,34,0.00,,,0.00,Wunderground v.1.12,2013-04-28 21:45:00,
2013-04-28 18:15:00,69.9,40.2,29.56,ENE,72,0.0,0.0,34,0.00,,,0.00,Wunderground v.1.12,2013-04-28 22:15:00,
2013-04-28 18:45:00,68.7,39.2,29.55,NE,34,4.0,4.0,34,0.00,,,0.00,Wunderground v.1.12,2013-04-28 22:45:00,
2013-04-28 19:15:00,66.9,39.8,29.81,NE,45,1.0,7.0,37,0.00,,,0.00,Wunderground v.1.12,2013-04-28 23:15:00,
2013-04-28 19:45:00,64.0,37.2,29.55,ENE,74,0.0,0.0,37,0.00,,,0.00,Wunderground v.1.12,2013-04-28 23:45:00,
2013-04-28 20:15:00,61.4,38.1,29.54,ENE,71,3.0,3.0,42,0.00,,,0.00,Wunderground v.1.12,2013-04-29 00:15:00,
2013-04-28 20:45:00,59.8,37.8,29.55,ENE,76,0.0,7.0,44,0.00,,,0.00,Wunderground v.1.12,2013-04-29 00:45:00,
2013-04-28 21:15:00,58.6,37.9,29.55,ENE,73,0.0,0.0,46,0.00,,,0.00,Wunderground v.1.12,2013-04-29 01:15:00,
2013-04-28 21:45:00,57.0,36.4,29.54,ENE,73,0.0,0.0,46,0.00,,,0.00,Wunderground v.1.12,2013-04-29 01:45:00,
2013-04-28 22:15:00,55.8,36.9,29.54,ENE,73,0.0,0.0,49,0.00,,,0.00,Wunderground v.1.12,2013-04-29 02:15:00,
2013-04-28 22:45:00,56.6,36.6,29.55,ENE,73,0.0,0.0,47,0.00,,,0.00,Wunderground v.1.12,2013-04-29 02:45:00,
2013-04-28 23:15:00,56.7,36.1,29.55,East,96,0.0,0.0,46,0.00,,,0.00,Wunderground v.1.12,2013-04-29 03:15:00,
2013-04-28 23:45:00,56.4,35.9,29.55,East,96,0.0,4.0,46,0.00,,,0.00,Wunderground v.1.12,2013-04-29 03:45:00,